Tracking 22094 objects as of 17-Jan-2021
HD Live streaming from Space Station
objects crossing your sky now

STARLINK-1740

Track STARLINK-1740 now!
10-day predictions
STARLINK-1740 is classified as:


NORAD ID: 46566
Int'l Code: 2020-070AL
Perigee: 553.5 km
Apogee: 555.1 km
Inclination: 53.0 °
Period: 95.6 minutes
Semi major axis: 6925 km
RCS: Unknown
Launch date: October 6, 2020
Source: United States (US)
Launch site: AIR FORCE EASTERN TEST RANGE (AFETR)
aabbcc
Your satellite tracking list
Your tracking list is empty




NASA's NSSDC Master Catalog

Two Line Element Set (TLE):
1 46566U 20070AL  21016.91667824 -.00025514  00000-0 -16998-2 0  9993
2 46566  53.0269 306.2448 0001146  67.1234 171.2606 15.06406315  1753
Source of the keplerian elements: AFSPC